Hourly Weather Rudki

Today, 18 April, Sunday

Time Temperature Precipitation Wind Pressure Humidity
00:00 +4°C° 0 mm 1 mps 742 mmHg 96%
01:00 +4°C° 0 mm 1 mps 742 mmHg 96%
02:00 +4°C° 0 mm 1 mps 742 mmHg 96%
03:00 +4°C° 0 mm 1 mps 742 mmHg 96%
04:00 +4°C° 0 mm 1 mps 742 mmHg 95%
05:00 +4°C° 0 mm 1 mps 742 mmHg 92%
06:00 +5°C° 0 mm 1 mps 742 mmHg 90%
07:00 +4°C° 0 mm 2 mps 742 mmHg 87%
08:00 +6°C° 0 mm 2 mps 742 mmHg 81%
09:00 +7°C° 0 mm 2 mps 742 mmHg 74%
10:00 +10°C° 0 mm 1 mps 742 mmHg 67%
11:00 +9°C° 0 mm 2 mps 742 mmHg 65%
12:00 +10°C° 0 mm 2 mps 742 mmHg 62%
13:00 +12°C° 0 mm 2 mps 742 mmHg 59%
14:00 +12°C° 0 mm 2 mps 742 mmHg 60%
15:00 +12°C° 0 mm 2 mps 742 mmHg 60%
16:00 +12°C° 0 mm 2 mps 742 mmHg 61%
17:00 +11°C° 0 mm 1 mps 742 mmHg 64%
18:00 +10°C° 0 mm 1 mps 742 mmHg 67%
19:00 +9°C° 0 mm 0 mps 742 mmHg 70%
20:00 +9°C° 0 mm 1 mps 742 mmHg 72%
21:00 +9°C° 0 mm 1 mps 742 mmHg 74%
22:00 +9°C° 0 mm 1 mps 742 mmHg 75%
23:00 +9°C° 0 mm 1 mps 742 mmHg 77%

Tomorrow, 19 April, Monday

Time Temperature Precipitation Wind Pressure Humidity
00:00 +9°C° 0 mm 1 mps 742 mmHg 79%
01:00 +8°C° 0 mm 2 mps 742 mmHg 81%
02:00 +8°C° 0.1 mm 2 mps 742 mmHg 85%
03:00 +7°C° 0.1 mm 2 mps 741 mmHg 89%
04:00 +7°C° 0.1 mm 2 mps 741 mmHg 92%
05:00 +8°C° 0.4 mm 2 mps 741 mmHg 92%
06:00 +8°C° 0.4 mm 2 mps 741 mmHg 93%
07:00 +8°C° 0.4 mm 3 mps 741 mmHg 93%
08:00 +9°C° 0 mm 3 mps 741 mmHg 83%
09:00 +10°C° 0 mm 4 mps 741 mmHg 74%
10:00 +10°C° 0 mm 5 mps 741 mmHg 64%
11:00 +10°C° 0 mm 5 mps 741 mmHg 64%
12:00 +10°C° 0 mm 5 mps 741 mmHg 64%
13:00 +10°C° 0 mm 5 mps 741 mmHg 64%
14:00 +10°C° 0 mm 5 mps 741 mmHg 63%
15:00 +10°C° 0 mm 5 mps 741 mmHg 63%
16:00 +10°C° 0 mm 5 mps 740 mmHg 63%
17:00 +10°C° 0 mm 4 mps 740 mmHg 67%
18:00 +8°C° 0 mm 4 mps 740 mmHg 71%
19:00 +8°C° 0 mm 3 mps 740 mmHg 75%
20:00 +8°C° 0 mm 3 mps 740 mmHg 79%
21:00 +7°C° 0 mm 3 mps 740 mmHg 82%
22:00 +7°C° 0 mm 2 mps 740 mmHg 86%
23:00 +6°C° 0 mm 2 mps 740 mmHg 87%

Day after tomorrow, 20 April, Tuesday

Time Temperature Precipitation Wind Pressure Humidity
00:00 +6°C° 0 mm 2 mps 740 mmHg 88%
01:00 +6°C° 0 mm 2 mps 740 mmHg 88%
02:00 +6°C° 0.1 mm 2 mps 739 mmHg 90%
03:00 +6°C° 0.1 mm 2 mps 739 mmHg 91%
04:00 +6°C° 0.1 mm 2 mps 739 mmHg 93%
05:00 +6°C° 0.1 mm 2 mps 739 mmHg 91%
06:00 +7°C° 0.1 mm 2 mps 739 mmHg 90%
07:00 +7°C° 0.1 mm 3 mps 739 mmHg 89%
08:00 +8°C° 0.1 mm 3 mps 739 mmHg 81%
09:00 +9°C° 0.1 mm 3 mps 739 mmHg 73%
10:00 +10°C° 0.1 mm 3 mps 739 mmHg 65%
11:00 +11°C° 0.1 mm 3 mps 739 mmHg 61%
12:00 +12°C° 0.1 mm 2 mps 739 mmHg 57%
13:00 +13°C° 0.1 mm 2 mps 739 mmHg 53%
14:00 +13°C° 0.1 mm 2 mps 738 mmHg 54%
15:00 +13°C° 0.1 mm 2 mps 738 mmHg 54%
16:00 +12°C° 0.1 mm 3 mps 738 mmHg 55%
17:00 +10°C° 0 mm 2 mps 738 mmHg 62%
18:00 +9°C° 0 mm 2 mps 738 mmHg 68%
19:00 +8°C° 0 mm 2 mps 738 mmHg 74%
20:00 +7°C° 0 mm 2 mps 738 mmHg 76%
21:00 +7°C° 0 mm 1 mps 738 mmHg 77%
22:00 +7°C° 0 mm 1 mps 738 mmHg 78%
23:00 +6°C° 0 mm 1 mps 738 mmHg 79%

21 April, Wednesday

Time Temperature Precipitation Wind Pressure Humidity
00:00 +6°C° 0 mm 1 mps 738 mmHg 80%
01:00 +6°C° 0 mm 1 mps 738 mmHg 81%
02:00 +4°C° 0 mm 2 mps 738 mmHg 82%
03:00 +4°C° 0 mm 2 mps 738 mmHg 83%
04:00 +4°C° 0 mm 2 mps 738 mmHg 84%
05:00 +5°C° 0 mm 2 mps 738 mmHg 79%
06:00 +7°C° 0 mm 2 mps 738 mmHg 74%
07:00 +8°C° 0 mm 2 mps 738 mmHg 70%
08:00 +9°C° 0.1 mm 2 mps 738 mmHg 64%
09:00 +11°C° 0.1 mm 3 mps 738 mmHg 59%
10:00 +12°C° 0.1 mm 3 mps 738 mmHg 54%
11:00 +12°C° 0.1 mm 3 mps 738 mmHg 54%
12:00 +12°C° 0.1 mm 3 mps 738 mmHg 55%
13:00 +13°C° 0.1 mm 4 mps 738 mmHg 55%
14:00 +13°C° 0.1 mm 3 mps 738 mmHg 54%
15:00 +13°C° 0.1 mm 3 mps 737 mmHg 53%
16:00 +13°C° 0.1 mm 3 mps 737 mmHg 53%
17:00 +13°C° 0 mm 2 mps 737 mmHg 59%
18:00 +10°C° 0 mm 2 mps 737 mmHg 65%
19:00 +10°C° 0 mm 1 mps 737 mmHg 71%
20:00 +10°C° 0 mm 1 mps 737 mmHg 73%
21:00 +8°C° 0 mm 2 mps 738 mmHg 75%
22:00 +8°C° 0 mm 2 mps 738 mmHg 77%
23:00 +8°C° 0.1 mm 2 mps 738 mmHg 80%

22 April, Thursday

Time Temperature Precipitation Wind Pressure Humidity
00:00 +8°C° 0.1 mm 2 mps 738 mmHg 83%
01:00 +8°C° 0.1 mm 2 mps 738 mmHg 86%
02:00 +7°C° 0 mm 2 mps 738 mmHg 89%
03:00 +6°C° 0 mm 2 mps 738 mmHg 92%
04:00 +6°C° 0 mm 2 mps 738 mmHg 94%
05:00 +5°C° 0 mm 3 mps 738 mmHg 91%
06:00 +7°C° 0 mm 3 mps 739 mmHg 87%
07:00 +8°C° 0 mm 3 mps 739 mmHg 83%
08:00 +8°C° 0.1 mm 3 mps 739 mmHg 80%
09:00 +9°C° 0.1 mm 3 mps 740 mmHg 76%
10:00 +9°C° 0.1 mm 3 mps 740 mmHg 72%
11:00 +9°C° 0.1 mm 3 mps 740 mmHg 74%
12:00 +8°C° 0.1 mm 4 mps 740 mmHg 75%
13:00 +7°C° 0.1 mm 4 mps 740 mmHg 77%
14:00 +6°C° 0.3 mm 4 mps 740 mmHg 78%
15:00 +7°C° 0.3 mm 3 mps 741 mmHg 79%
16:00 +5°C° 0.3 mm 3 mps 741 mmHg 80%
17:00 +4°C° 0 mm 3 mps 741 mmHg 82%
18:00 +4°C° 0 mm 3 mps 741 mmHg 84%
19:00 +4°C° 0 mm 2 mps 741 mmHg 85%
20:00 +4°C° 0 mm 2 mps 741 mmHg 85%
21:00 +3°C° 0 mm 2 mps 741 mmHg 86%
22:00 +3°C° 0 mm 2 mps 742 mmHg 86%
23:00 +1°C° 0 mm 3 mps 742 mmHg 88%

23 April, Friday

Time Temperature Precipitation Wind Pressure Humidity
00:00 +1°C° 0 mm 3 mps 742 mmHg 90%
01:00 0°C° 0 mm 4 mps 742 mmHg 92%
02:00 0°C° 0 mm 4 mps 742 mmHg 91%
03:00 0°C° 0 mm 4 mps 742 mmHg 90%
04:00 0°C° 0 mm 4 mps 742 mmHg 88%
05:00 0°C° 0.1 mm 4 mps 743 mmHg 89%
06:00 0°C° 0.1 mm 4 mps 743 mmHg 90%
07:00 +1°C° 0.1 mm 4 mps 743 mmHg 90%
08:00 +1°C° 0.3 mm 4 mps 744 mmHg 92%
09:00 +1°C° 0.3 mm 4 mps 744 mmHg 94%
10:00 +2°C° 0.3 mm 3 mps 744 mmHg 95%
11:00 +3°C° 0.1 mm 4 mps 745 mmHg 90%
12:00 +4°C° 0.1 mm 4 mps 745 mmHg 86%
13:00 +5°C° 0.1 mm 5 mps 745 mmHg 81%
14:00 +5°C° 0.3 mm 5 mps 746 mmHg 77%
15:00 +6°C° 0.3 mm 5 mps 746 mmHg 74%
16:00 +6°C° 0.3 mm 5 mps 746 mmHg 70%
17:00 +5°C° 0.2 mm 5 mps 746 mmHg 74%
18:00 +4°C° 0.2 mm 4 mps 747 mmHg 79%
19:00 +3°C° 0.2 mm 3 mps 747 mmHg 83%
20:00 +2°C° 0 mm 3 mps 747 mmHg 84%
21:00 +1°C° 0 mm 4 mps 748 mmHg 85%
22:00 0°C° 0 mm 4 mps 748 mmHg 86%
23:00 0°C° 0 mm 4 mps 748 mmHg 86%
Show more